This is the latest recevied weather packets stored in our database for station/object SQ5DCP-1. If no packets are shown the sender has not sent any weather packets the latest 10 day(s).
| Time | Temp. | Humidity | Pressure | Rain* | Wind** | Luminosity | Snow |
|---|---|---|---|---|---|---|---|
| 1787995221 | 18.33° C | 83% | 1014 hPa | 1.78 mm | - | - | - |
| 1787994920 | 18.33° C | 82% | 1013.9 hPa | 2.03 mm | - | - | - |
| 1787994648 | 18.33° C | 81% | 1014 hPa | 2.29 mm | - | - | - |
| 1787994617 | 18.33° C | 81% | 1014 hPa | 2.29 mm | - | - | - |
| 1787994336 | 17.78° C | 80% | 1013.9 hPa | 2.54 mm | - | - | - |
| 1787994034 | 17.78° C | 80% | 1013.9 hPa | 2.29 mm | - | - | - |
| 1787993732 | 17.78° C | 80% | 1013.8 hPa | 2.29 mm | - | - | - |
| 1787993430 | 17.78° C | 79% | 1013.7 hPa | 2.29 mm | - | - | - |
| 1787993128 | 17.78° C | 79% | 1013.6 hPa | 2.29 mm | - | - | - |
| 1787992826 | 17.78° C | 79% | 1013.6 hPa | 2.29 mm | - | - | - |
| 1787992524 | 17.78° C | 79% | 1013.6 hPa | 2.03 mm | - | - | - |
| 1787992223 | 17.78° C | 79% | 1013.5 hPa | 1.78 mm | - | - | - |
| 1787991920 | 17.78° C | 79% | 1013.5 hPa | 1.27 mm | - | - | - |
| 1787991650 | 17.22° C | 78% | 1013.5 hPa | 1.27 mm | - | - | - |
| 1787991618 | 17.22° C | 78% | 1013.5 hPa | 1.27 mm | - | - | - |
| 1787991316 | 17.22° C | 78% | 1013.4 hPa | 1.02 mm | - | - | - |
| 1787991035 | 17.22° C | 77% | 1013.4 hPa | 0.76 mm | - | - | - |
| 1787990733 | 17.22° C | 77% | 1013.4 hPa | 0.51 mm | - | - | - |
| 1787990431 | 17.22° C | 76% | 1013.4 hPa | 0.51 mm | - | - | - |
| 1787990129 | 17.22° C | 76% | 1013.3 hPa | 0.51 mm | - | - | - |
| 1787989827 | 17.22° C | 76% | 1013.3 hPa | 0.51 mm | - | - | - |
| 1787989525 | 17.22° C | 75% | 1013.1 hPa | 0.51 mm | - | - | - |
| 1787989223 | 17.22° C | 75% | 1012.9 hPa | 0.76 mm | - | - | - |
| 1787988921 | 17.22° C | 75% | 1012.8 hPa | 0.76 mm | - | - | - |
| 1787988619 | 16.67° C | 75% | 1012.8 hPa | 0.76 mm | - | - | - |
* Rain latest hour (hover to see other rain measurements)
** Current wind speed in m/s (hover to see current wind gust speed)